Location: La Fredeussais
(48.1780°N, 1.3980°W)
Time: 02:03:17
(UTC+00:00)

Cosmos 2278 Rocket - Pass Details

Date: 09 May 2021
Orbit: 842 x 845 km, 71.0° (Epoch: 13 June)

Event Time Altitude Azimuth Distance (km) Brightness Sun altitude
Exits shadow 22:31:28 10° 223° (SW) 2,497 4.4 -21.2°
Reaches altitude 10° 22:31:35 10° 224° (SW) 2,456 4.4 -21.2°
Maximum altitude 22:37:07 57° 303° (WNW) 988 2.7 -21.5°
Drops below altitude 10° 22:42:42 10° 22° (NNE) 2,470 5.3 -21.9°
Sets 22:45:13 0° 26° (NNE) 3,409 6.0 -22.0°
